����������;��������(kVARh)
2016-06-27 00:00;0
2016-06-27 00:15;0
2016-06-27 00:30;0
2016-06-27 00:45;0
2016-06-27 01:00;0
2016-06-27 01:15;0
2016-06-27 01:30;0
2016-06-27 01:45;0
2016-06-27 02:00;0
2016-06-27 02:15;0
2016-06-27 02:30;0,15
2016-06-27 02:45;0
2016-06-27 03:00;0
2016-06-27 03:15;0
2016-06-27 03:30;0
2016-06-27 03:45;0
2016-06-27 04:00;0
2016-06-27 04:15;0
2016-06-27 04:30;0,05
2016-06-27 04:45;0,35
2016-06-27 05:00;0,15
2016-06-27 05:15;0
2016-06-27 05:30;0
2016-06-27 05:45;0,45
2016-06-27 06:00;0,2
2016-06-27 06:15;0,2
2016-06-27 06:30;0,1
2016-06-27 06:45;0,45
2016-06-27 07:00;0
2016-06-27 07:15;1,75
2016-06-27 07:30;0,9
2016-06-27 07:45;13,6
2016-06-27 08:00;24,5
2016-06-27 08:15;26,2
2016-06-27 08:30;22,75
2016-06-27 08:45;32,4
2016-06-27 09:00;39,95
2016-06-27 09:15;42,1
2016-06-27 09:30;37,25
2016-06-27 09:45;39,8
2016-06-27 10:00;47,4
2016-06-27 10:15;45,2
2016-06-27 10:30;53,45
2016-06-27 10:45;63,9
2016-06-27 11:00;72,7
2016-06-27 11:15;72,05
2016-06-27 11:30;71,35
2016-06-27 11:45;74,05
2016-06-27 12:00;78,8
2016-06-27 12:15;81,8
2016-06-27 12:30;75
2016-06-27 12:45;72,45
2016-06-27 13:00;70,1
2016-06-27 13:15;71,85
2016-06-27 13:30;66,65
2016-06-27 13:45;65,85
2016-06-27 14:00;65,05
2016-06-27 14:15;64,65
2016-06-27 14:30;60,7
2016-06-27 14:45;63,45
2016-06-27 15:00;62,6
2016-06-27 15:15;62,75
2016-06-27 15:30;62,1
2016-06-27 15:45;60,2
2016-06-27 16:00;60,1
2016-06-27 16:15;57
2016-06-27 16:30;57,3
2016-06-27 16:45;53,25
2016-06-27 17:00;54,3
2016-06-27 17:15;51,75
2016-06-27 17:30;53,15
2016-06-27 17:45;50,45
2016-06-27 18:00;47,55
2016-06-27 18:15;43,9
2016-06-27 18:30;40,8
2016-06-27 18:45;35,35
2016-06-27 19:00;36,75
2016-06-27 19:15;31,4
2016-06-27 19:30;21,3
2016-06-27 19:45;22,5
2016-06-27 20:00;22,3
2016-06-27 20:15;13,55
2016-06-27 20:30;11,25
2016-06-27 20:45;8,5
2016-06-27 21:00;4,35
2016-06-27 21:15;0,6
2016-06-27 21:30;1,95
2016-06-27 21:45;0,75
2016-06-27 22:00;0,8
2016-06-27 22:15;1,45
2016-06-27 22:30;3,5
2016-06-27 22:45;3,25
2016-06-27 23:00;3,4
2016-06-27 23:15;1,15
2016-06-27 23:30;2,75
2016-06-27 23:45;6,25
2016-06-28 00:00;4,7
2016-06-28 00:15;0,2
2016-06-28 00:30;0,8
2016-06-28 00:45;0,7
2016-06-28 01:00;0,9
2016-06-28 01:15;0,55
2016-06-28 01:30;0,05
2016-06-28 01:45;0,15
2016-06-28 02:00;0,3
2016-06-28 02:15;0,15
2016-06-28 02:30;0
2016-06-28 02:45;0
2016-06-28 03:00;0
2016-06-28 03:15;0
2016-06-28 03:30;0,2
2016-06-28 03:45;0
2016-06-28 04:00;0
2016-06-28 04:15;0
2016-06-28 04:30;0
2016-06-28 04:45;0
2016-06-28 05:00;0
2016-06-28 05:15;0
2016-06-28 05:30;0
2016-06-28 05:45;0,1
2016-06-28 06:00;1,35
2016-06-28 06:15;5,7
2016-06-28 06:30;2
2016-06-28 06:45;1,4
2016-06-28 07:00;3,5
2016-06-28 07:15;5,95
2016-06-28 07:30;5,6
2016-06-28 07:45;16,95
2016-06-28 08:00;17,75
2016-06-28 08:15;11,9
2016-06-28 08:30;11,15
2016-06-28 08:45;12,15
2016-06-28 09:00;13,4
2016-06-28 09:15;23,65
2016-06-28 09:30;26,15
2016-06-28 09:45;29,7
2016-06-28 10:00;28,7
2016-06-28 10:15;40,2
2016-06-28 10:30;50,75
2016-06-28 10:45;53,65
2016-06-28 11:00;65,8
2016-06-28 11:15;59,6
2016-06-28 11:30;51,75
2016-06-28 11:45;63,65
2016-06-28 12:00;62,95
2016-06-28 12:15;64,45
2016-06-28 12:30;68,35
2016-06-28 12:45;65
2016-06-28 13:00;63
2016-06-28 13:15;56
2016-06-28 13:30;55,9
2016-06-28 13:45;57,85
2016-06-28 14:00;54,35
2016-06-28 14:15;53,15
2016-06-28 14:30;59,25
2016-06-28 14:45;48,05
2016-06-28 15:00;58,95
2016-06-28 15:15;50,45
2016-06-28 15:30;50,25
2016-06-28 15:45;50,55
2016-06-28 16:00;41,65
2016-06-28 16:15;44,6
2016-06-28 16:30;39,05
2016-06-28 16:45;37,35
2016-06-28 17:00;45,65
2016-06-28 17:15;37,45
2016-06-28 17:30;37,5
2016-06-28 17:45;38,7
2016-06-28 18:00;35,05
2016-06-28 18:15;33,5
2016-06-28 18:30;29,85
2016-06-28 18:45;23,1
2016-06-28 19:00;23,2
2016-06-28 19:15;18,15
2016-06-28 19:30;18
2016-06-28 19:45;17,3
2016-06-28 20:00;17,9
2016-06-28 20:15;14,85
2016-06-28 20:30;16,75
2016-06-28 20:45;14,6
2016-06-28 21:00;13,35
2016-06-28 21:15;11,95
2016-06-28 21:30;12,1
2016-06-28 21:45;14,4
2016-06-28 22:00;12,1
2016-06-28 22:15;11,4
2016-06-28 22:30;7,85
2016-06-28 22:45;8,45
2016-06-28 23:00;8,6
2016-06-28 23:15;4,8
2016-06-28 23:30;2,3
2016-06-28 23:45;0,85
2016-06-29 00:00;0
2016-06-29 00:15;0
2016-06-29 00:30;0,05
2016-06-29 00:45;0
2016-06-29 01:00;0
2016-06-29 01:15;0
2016-06-29 01:30;0
2016-06-29 01:45;0
2016-06-29 02:00;0,1
2016-06-29 02:15;0
2016-06-29 02:30;0
2016-06-29 02:45;0
2016-06-29 03:00;0
2016-06-29 03:15;0
2016-06-29 03:30;0
2016-06-29 03:45;1,95
2016-06-29 04:00;4,2
2016-06-29 04:15;4,4
2016-06-29 04:30;6,75
2016-06-29 04:45;5,75
2016-06-29 05:00;3,75
2016-06-29 05:15;4,45
2016-06-29 05:30;3,65
2016-06-29 05:45;3,8
2016-06-29 06:00;14,65
2016-06-29 06:15;24,9
2016-06-29 06:30;20,8
2016-06-29 06:45;21,4
2016-06-29 07:00;20,75
2016-06-29 07:15;26,4
2016-06-29 07:30;24,75
2016-06-29 07:45;39,45
2016-06-29 08:00;39,55
2016-06-29 08:15;28,95
2016-06-29 08:30;35,4
2016-06-29 08:45;26,05
2016-06-29 09:00;19,05
2016-06-29 09:15;26,7
2016-06-29 09:30;31,5
2016-06-29 09:45;31,2
2016-06-29 10:00;38,5
2016-06-29 10:15;39,3
2016-06-29 10:30;36,1
2016-06-29 10:45;47,75
2016-06-29 11:00;53,05
2016-06-29 11:15;49,6
2016-06-29 11:30;48,2
2016-06-29 11:45;64,7
2016-06-29 12:00;66,25
2016-06-29 12:15;66,1
2016-06-29 12:30;63,55
2016-06-29 12:45;57,9
2016-06-29 13:00;60,4
2016-06-29 13:15;62,8
2016-06-29 13:30;64,65
2016-06-29 13:45;53,15
2016-06-29 14:00;52,45
2016-06-29 14:15;46,75
2016-06-29 14:30;48,3
2016-06-29 14:45;51,45
2016-06-29 15:00;52,15
2016-06-29 15:15;50,1
2016-06-29 15:30;45,35
2016-06-29 15:45;39,25
2016-06-29 16:00;39,25
2016-06-29 16:15;37,85
2016-06-29 16:30;33
2016-06-29 16:45;32,8
2016-06-29 17:00;33,4
2016-06-29 17:15;29
2016-06-29 17:30;28,2
2016-06-29 17:45;28,9
2016-06-29 18:00;28
2016-06-29 18:15;30,3
2016-06-29 18:30;23,25
2016-06-29 18:45;23,05
2016-06-29 19:00;24,8
2016-06-29 19:15;16,6
2016-06-29 19:30;13,95
2016-06-29 19:45;14,1
2016-06-29 20:00;12,05
2016-06-29 20:15;7,3
2016-06-29 20:30;2,7
2016-06-29 20:45;0,75
2016-06-29 21:00;0,75
2016-06-29 21:15;1,1
2016-06-29 21:30;3,15
2016-06-29 21:45;5,55
2016-06-29 22:00;6,6
2016-06-29 22:15;6,05
2016-06-29 22:30;5,8
2016-06-29 22:45;8,75
2016-06-29 23:00;6,55
2016-06-29 23:15;2
2016-06-29 23:30;1,3
2016-06-29 23:45;0,5
2016-06-30 00:00;0
2016-06-30 00:15;0
2016-06-30 00:30;0
2016-06-30 00:45;0
2016-06-30 01:00;0
2016-06-30 01:15;0
2016-06-30 01:30;0
2016-06-30 01:45;0
2016-06-30 02:00;0
2016-06-30 02:15;0
2016-06-30 02:30;0
2016-06-30 02:45;0
2016-06-30 03:00;0
2016-06-30 03:15;0
2016-06-30 03:30;0
2016-06-30 03:45;0,2
2016-06-30 04:00;0
2016-06-30 04:15;0
2016-06-30 04:30;0
2016-06-30 04:45;0
2016-06-30 05:00;0,05
2016-06-30 05:15;0
2016-06-30 05:30;0,05
2016-06-30 05:45;0
2016-06-30 06:00;3,35
2016-06-30 06:15;4,25
2016-06-30 06:30;8,25
2016-06-30 06:45;13,1
2016-06-30 07:00;10,25
2016-06-30 07:15;11,35
2016-06-30 07:30;10,4
2016-06-30 07:45;17,75
2016-06-30 08:00;20,5
2016-06-30 08:15;20,35
2016-06-30 08:30;31,6
2016-06-30 08:45;40,35
2016-06-30 09:00;40,05
2016-06-30 09:15;52,85
2016-06-30 09:30;51,45
2016-06-30 09:45;46,7
2016-06-30 10:00;43,1
2016-06-30 10:15;43,95
2016-06-30 10:30;34,25
2016-06-30 10:45;52,15
2016-06-30 11:00;54
2016-06-30 11:15;56
2016-06-30 11:30;51,45
2016-06-30 11:45;59,5
2016-06-30 12:00;56,65
2016-06-30 12:15;60,55
2016-06-30 12:30;62,8
2016-06-30 12:45;54,8
2016-06-30 13:00;54,5
2016-06-30 13:15;51,95
2016-06-30 13:30;55,75
2016-06-30 13:45;57,75
2016-06-30 14:00;49,55
2016-06-30 14:15;52,6
2016-06-30 14:30;52,35
2016-06-30 14:45;51,15
2016-06-30 15:00;50,3
2016-06-30 15:15;54,3
2016-06-30 15:30;50,9
2016-06-30 15:45;41,7
2016-06-30 16:00;45,6
2016-06-30 16:15;46,5
2016-06-30 16:30;40,4
2016-06-30 16:45;47,8
2016-06-30 17:00;43,1
2016-06-30 17:15;42,85
2016-06-30 17:30;43,5
2016-06-30 17:45;38,95
2016-06-30 18:00;37,55
2016-06-30 18:15;34,25
2016-06-30 18:30;28,65
2016-06-30 18:45;25,9
2016-06-30 19:00;23,85
2016-06-30 19:15;19,6
2016-06-30 19:30;15,7
2016-06-30 19:45;14,95
2016-06-30 20:00;10,65
2016-06-30 20:15;10,2
2016-06-30 20:30;9,4
2016-06-30 20:45;11,2
2016-06-30 21:00;6,4
2016-06-30 21:15;6,9
2016-06-30 21:30;8,65
2016-06-30 21:45;7,65
2016-06-30 22:00;5,85
2016-06-30 22:15;10,9
2016-06-30 22:30;16,2
2016-06-30 22:45;14,25
2016-06-30 23:00;16,45
2016-06-30 23:15;16,5
2016-06-30 23:30;17,5
2016-06-30 23:45;17,8
2016-07-01 00:00;14,05
2016-07-01 00:15;8,5
2016-07-01 00:30;2,75
2016-07-01 00:45;2,9
2016-07-01 01:00;0,25
2016-07-01 01:15;0
2016-07-01 01:30;0
2016-07-01 01:45;0,05
2016-07-01 02:00;1,1
2016-07-01 02:15;2,3
2016-07-01 02:30;1,7
2016-07-01 02:45;2,45
2016-07-01 03:00;1,05
2016-07-01 03:15;2,35
2016-07-01 03:30;0,2
2016-07-01 03:45;0,05
2016-07-01 04:00;0,25
2016-07-01 04:15;0,35
2016-07-01 04:30;0,25
2016-07-01 04:45;0,1
2016-07-01 05:00;0,7
2016-07-01 05:15;1,75
2016-07-01 05:30;0,95
2016-07-01 05:45;3,15
2016-07-01 06:00;1,9
2016-07-01 06:15;8,4
2016-07-01 06:30;7,7
2016-07-01 06:45;10,4
2016-07-01 07:00;13,1
2016-07-01 07:15;18
2016-07-01 07:30;18,3
2016-07-01 07:45;35,75
2016-07-01 08:00;39,8
2016-07-01 08:15;30,9
2016-07-01 08:30;38,2
2016-07-01 08:45;31,45
2016-07-01 09:00;31,45
2016-07-01 09:15;39,55
2016-07-01 09:30;35,35
2016-07-01 09:45;38,7
2016-07-01 10:00;42,35
2016-07-01 10:15;41,65
2016-07-01 10:30;42,75
2016-07-01 10:45;47,95
2016-07-01 11:00;46,55
2016-07-01 11:15;44,45
2016-07-01 11:30;50,55
2016-07-01 11:45;68,15
2016-07-01 12:00;65,9
2016-07-01 12:15;61
2016-07-01 12:30;68,2
2016-07-01 12:45;63,45
2016-07-01 13:00;64
2016-07-01 13:15;70,45
2016-07-01 13:30;69,1
2016-07-01 13:45;69,1
2016-07-01 14:00;68,6
2016-07-01 14:15;69,9
2016-07-01 14:30;64,4
2016-07-01 14:45;58,55
2016-07-01 15:00;55,8
2016-07-01 15:15;51,45
2016-07-01 15:30;47,85
2016-07-01 15:45;50,05
2016-07-01 16:00;48,5
2016-07-01 16:15;49,75
2016-07-01 16:30;45,25
2016-07-01 16:45;48,65
2016-07-01 17:00;43,7
2016-07-01 17:15;39,75
2016-07-01 17:30;40,7
2016-07-01 17:45;29
2016-07-01 18:00;29,15
2016-07-01 18:15;27,95
2016-07-01 18:30;26,55
2016-07-01 18:45;23,3
2016-07-01 19:00;23,85
2016-07-01 19:15;17,4
2016-07-01 19:30;14,9
2016-07-01 19:45;14,6
2016-07-01 20:00;8,35
2016-07-01 20:15;6,95
2016-07-01 20:30;6,3
2016-07-01 20:45;2,5
2016-07-01 21:00;2,2
2016-07-01 21:15;2,5
2016-07-01 21:30;4,5
2016-07-01 21:45;3,95
2016-07-01 22:00;3,35
2016-07-01 22:15;4
2016-07-01 22:30;5,5
2016-07-01 22:45;3,9
2016-07-01 23:00;4,45
2016-07-01 23:15;3,75
2016-07-01 23:30;8,5
2016-07-01 23:45;11,65
2016-07-02 00:00;6,85
2016-07-02 00:15;1,7
2016-07-02 00:30;1,7
2016-07-02 00:45;0,65
2016-07-02 01:00;0
2016-07-02 01:15;0
2016-07-02 01:30;0,1
2016-07-02 01:45;0
2016-07-02 02:00;0
2016-07-02 02:15;0
2016-07-02 02:30;0
2016-07-02 02:45;0
2016-07-02 03:00;0
2016-07-02 03:15;0
2016-07-02 03:30;0
2016-07-02 03:45;0
2016-07-02 04:00;0,05
2016-07-02 04:15;0
2016-07-02 04:30;0
2016-07-02 04:45;0
2016-07-02 05:00;0
2016-07-02 05:15;0
2016-07-02 05:30;0
2016-07-02 05:45;0
2016-07-02 06:00;0
2016-07-02 06:15;0
2016-07-02 06:30;0,05
2016-07-02 06:45;0,35
2016-07-02 07:00;0
2016-07-02 07:15;0
2016-07-02 07:30;0
2016-07-02 07:45;0,25
2016-07-02 08:00;0,15
2016-07-02 08:15;0
2016-07-02 08:30;0
2016-07-02 08:45;0
2016-07-02 09:00;0
2016-07-02 09:15;0
2016-07-02 09:30;0
2016-07-02 09:45;0
2016-07-02 10:00;0
2016-07-02 10:15;0
2016-07-02 10:30;0
2016-07-02 10:45;9,8
2016-07-02 11:00;6,95
2016-07-02 11:15;0,8
2016-07-02 11:30;3,85
2016-07-02 11:45;4,7
2016-07-02 12:00;3,7
2016-07-02 12:15;0,7
2016-07-02 12:30;0,5
2016-07-02 12:45;0,1
2016-07-02 13:00;0,1
2016-07-02 13:15;2,7
2016-07-02 13:30;7,5
2016-07-02 13:45;10,55
2016-07-02 14:00;6,05
2016-07-02 14:15;5,8
2016-07-02 14:30;8,75
2016-07-02 14:45;9,25
2016-07-02 15:00;8,75
2016-07-02 15:15;10,45
2016-07-02 15:30;11,4
2016-07-02 15:45;12,2
2016-07-02 16:00;12,7
2016-07-02 16:15;12,25
2016-07-02 16:30;12,35
2016-07-02 16:45;15
2016-07-02 17:00;17,25
2016-07-02 17:15;7,85
2016-07-02 17:30;1,5
2016-07-02 17:45;0,8
2016-07-02 18:00;0,5
2016-07-02 18:15;2,7
2016-07-02 18:30;1,7
2016-07-02 18:45;2,55
2016-07-02 19:00;3
2016-07-02 19:15;1,25
2016-07-02 19:30;1,7
2016-07-02 19:45;0,85
2016-07-02 20:00;1,4
2016-07-02 20:15;2,15
2016-07-02 20:30;4,05
2016-07-02 20:45;3,7
2016-07-02 21:00;4,35
2016-07-02 21:15;0,9
2016-07-02 21:30;1,05
2016-07-02 21:45;0,6
2016-07-02 22:00;0,35
2016-07-02 22:15;0,1
2016-07-02 22:30;0,15
2016-07-02 22:45;0
2016-07-02 23:00;0,8
2016-07-02 23:15;0,3
2016-07-02 23:30;0,6
2016-07-02 23:45;0,55
2016-07-03 00:00;0
2016-07-03 00:15;0
2016-07-03 00:30;0,05
2016-07-03 00:45;0
2016-07-03 01:00;0
2016-07-03 01:15;0
2016-07-03 01:30;0
2016-07-03 01:45;0
2016-07-03 02:00;0
2016-07-03 02:15;0
2016-07-03 02:30;0
2016-07-03 02:45;0
2016-07-03 03:00;0
2016-07-03 03:15;0
2016-07-03 03:30;0
2016-07-03 03:45;0
2016-07-03 04:00;0
2016-07-03 04:15;0
2016-07-03 04:30;0
2016-07-03 04:45;0
2016-07-03 05:00;0
2016-07-03 05:15;0
2016-07-03 05:30;0
2016-07-03 05:45;0,05
2016-07-03 06:00;0
2016-07-03 06:15;0
2016-07-03 06:30;0
2016-07-03 06:45;0
2016-07-03 07:00;0
2016-07-03 07:15;0
2016-07-03 07:30;0
2016-07-03 07:45;0
2016-07-03 08:00;0,1
2016-07-03 08:15;0
2016-07-03 08:30;0
2016-07-03 08:45;0
2016-07-03 09:00;0
2016-07-03 09:15;0
2016-07-03 09:30;0,6
2016-07-03 09:45;0,15
2016-07-03 10:00;0,05
2016-07-03 10:15;2,5
2016-07-03 10:30;0,1
2016-07-03 10:45;0,05
2016-07-03 11:00;0,05
2016-07-03 11:15;0,05
2016-07-03 11:30;0,05
2016-07-03 11:45;0
2016-07-03 12:00;0
2016-07-03 12:15;0
2016-07-03 12:30;0
2016-07-03 12:45;0,05
2016-07-03 13:00;2,05
2016-07-03 13:15;8,1
2016-07-03 13:30;9,05
2016-07-03 13:45;8,95
2016-07-03 14:00;9,75
2016-07-03 14:15;9,3
2016-07-03 14:30;10,35
2016-07-03 14:45;12,6
2016-07-03 15:00;10,8
2016-07-03 15:15;12,9
2016-07-03 15:30;14,7
2016-07-03 15:45;13,35
2016-07-03 16:00;14,25
2016-07-03 16:15;13
2016-07-03 16:30;14,75
2016-07-03 16:45;14,2
2016-07-03 17:00;12,1
2016-07-03 17:15;11,3
2016-07-03 17:30;10,15
2016-07-03 17:45;11,75
2016-07-03 18:00;10,7
2016-07-03 18:15;16,25
2016-07-03 18:30;13,85
2016-07-03 18:45;13,65
2016-07-03 19:00;14,65
2016-07-03 19:15;12,75
2016-07-03 19:30;8,4
2016-07-03 19:45;10
2016-07-03 20:00;8,1
2016-07-03 20:15;4,4
2016-07-03 20:30;5,5
2016-07-03 20:45;3,8
2016-07-03 21:00;2,55
2016-07-03 21:15;0,6
2016-07-03 21:30;0,25
2016-07-03 21:45;0
2016-07-03 22:00;0,05
2016-07-03 22:15;0
2016-07-03 22:30;0,15
2016-07-03 22:45;0,05
2016-07-03 23:00;0
2016-07-03 23:15;0,05
2016-07-03 23:30;0,05
2016-07-03 23:45;0

